M I D A S
Marine Information and Data Acquisition System
Tripno 1027 of the Zeeleeuw from 2006-01-23 07:41:22 to 2006-01-23 14:12:29
Back to CruiseResearch ActivitiesStationsMapUnderway DataData graphs

EquipmentUnitsComments
TimeDGPSUTC
LatitudeDGPSDM.mWGS84
LongitudeDGPSDM.mWGS84
SpeedMeteo Stationm/sRelative wind speed
DirectionMeteo StationdegRelative wind direction
TemperatureMeteo Stationdeg CelciusAir temperature
PressureMeteo StationPaAtmospheric pressure
HumidityMeteo Station%Relative humidity
Missing or incorrect values are displayed as -999
Metereological data collected by the RV Zeeleeuw from 2006-01-23 07:10:03 to 2006-01-23 14:18:58
                                                                                    Next 1000 lines
Time Latitude Longitude Speed Direction Temperature Pressure Humidity
2006-01-23 07:10:13 51°13.597 2°56.095 -999 7 -999 103750 81
2006-01-23 07:10:18 51°13.598 2°56.095 -999 6 -999 103750 81
2006-01-23 07:10:23 51°13.598 2°56.095 -999 12 -999 103750 81
2006-01-23 07:10:28 51°13.598 2°56.095 -999 1 -999 103750 81
2006-01-23 07:10:33 51°13.598 2°56.095 -999 11 -999 103750 81
2006-01-23 07:10:38 51°13.598 2°56.095 -999 12 -999 103750 81
2006-01-23 07:10:43 51°13.598 2°56.095 -999 344 -999 103750 81
2006-01-23 07:10:48 51°13.598 2°56.095 -999 11 -999 103750 81
2006-01-23 07:10:53 51°13.598 2°56.096 -999 39 -999 103750 81
2006-01-23 07:10:58 51°13.598 2°56.096 -999 22 -999 103760 81
2006-01-23 07:11:03 51°13.598 2°56.096 -999 28 -999 103760 81
2006-01-23 07:11:08 51°13.598 2°56.096 -999 350 -0.1 103750 81
2006-01-23 07:11:13 51°13.598 2°56.096 -999 -999 -0.1 103750 81
2006-01-23 07:11:18 51°13.598 2°56.096 -999 7 -999 103750 81
2006-01-23 07:11:23 51°13.598 2°56.096 -999 3 -999 103750 81
2006-01-23 07:11:28 51°13.598 2°56.096 -999 13 -0.1 103750 81
2006-01-23 07:11:33 51°13.598 2°56.096 -999 16 -0.1 103750 81
2006-01-23 07:11:38 51°13.598 2°56.096 -999 6 -999 103750 81
2006-01-23 07:11:43 51°13.598 2°56.096 -999 38 -999 103750 81
2006-01-23 07:11:49 51°13.598 2°56.095 -999 8 -999 103750 81
2006-01-23 07:11:53 51°13.598 2°56.095 -999 356 -999 103750 81
2006-01-23 07:11:58 51°13.598 2°56.096 -999 6 -999 103750 81
2006-01-23 07:12:03 51°13.598 2°56.096 -999 11 -999 103750 81
2006-01-23 07:12:08 51°13.598 2°56.096 -999 358 -999 103750 81
2006-01-23 07:12:13 51°13.598 2°56.096 -999 357 -999 103750 81
2006-01-23 07:12:17 51°13.598 2°56.095 -999 358 -999 103750 81
2006-01-23 07:12:25 51°13.598 2°56.095 -999 358 -999 103750 81
2006-01-23 07:12:31 51°13.598 2°56.095 -999 358 -999 103750 81
2006-01-23 07:12:35 51°13.598 2°56.095 -999 358 -999 103750 81
2006-01-23 07:12:41 51°13.598 2°56.095 -999 358 -999 103750 81
2006-01-23 07:12:45 51°13.598 2°56.095 -999 358 -999 103750 81
2006-01-23 07:12:51 51°13.598 2°56.095 -999 -999 -999 -999 -999
2006-01-23 07:12:55 51°13.599 2°56.095 -999 -999 -999 -999 -999
2006-01-23 07:13:00 51°13.599 2°56.095 -999 -999 -999 -999 -999
2006-01-23 07:13:05 51°13.599 2°56.095 -999 25 -999 -999 -999
2006-01-23 07:13:10 51°13.599 2°56.095 -999 62 -999 -999 -999
2006-01-23 07:13:15 51°13.599 2°56.095 -999 340 -999 -999 -999
2006-01-23 07:13:20 51°13.599 2°56.095 -999 338 -999 -999 80
2006-01-23 07:13:25 51°13.599 2°56.095 -999 5 -999 -999 80
2006-01-23 07:13:30 51°13.599 2°56.094 -999 14 -0.1 -999 81
2006-01-23 07:13:35 51°13.599 2°56.094 -999 17 -0.1 -999 81
2006-01-23 07:13:40 51°13.599 2°56.095 -999 36 -0.1 103750 81
2006-01-23 07:13:45 51°13.599 2°56.095 -999 15 -0.1 103750 81
2006-01-23 07:13:50 51°13.599 2°56.095 -999 3 -0.1 103750 81
2006-01-23 07:13:55 51°13.599 2°56.095 -999 17 -0.1 103750 81
2006-01-23 07:14:00 51°13.599 2°56.094 -999 355 -0.1 103750 81
2006-01-23 07:14:05 51°13.599 2°56.094 -999 5 -0.1 103750 81
2006-01-23 07:14:10 51°13.599 2°56.094 -999 357 -0.1 103750 81
2006-01-23 07:14:13 51°13.599 2°56.094 -999 4 -0.1 103750 81
2006-01-23 07:14:17 51°13.599 2°56.094 -999 360 -999 103750 81
2006-01-23 07:14:22 51°13.599 2°56.094 -999 2 -999 103750 81
2006-01-23 07:14:27 51°13.599 2°56.094 -999 1 -999 103750 81
2006-01-23 07:14:32 51°13.599 2°56.094 -999 2 -999 103750 81
2006-01-23 07:14:36 51°13.599 2°56.094 -999 6 -0.1 103750 81
2006-01-23 07:14:41 51°13.599 2°56.094 -999 6 -0.1 103750 81
2006-01-23 07:14:47 51°13.599 2°56.094 -999 7 -999 103750 81
2006-01-23 07:14:52 51°13.599 2°56.095 -999 3 -999 103750 81
2006-01-23 07:14:57 51°13.599 2°56.095 -999 38 -0.1 103750 81
2006-01-23 07:15:01 51°13.599 2°56.095 -999 355 -0.1 103750 81
2006-01-23 07:15:07 51°13.599 2°56.095 -999 9 -0.1 103750 80
2006-01-23 07:15:12 51°13.599 2°56.095 -999 27 -0.1 103750 80
2006-01-23 07:15:16 51°13.599 2°56.095 -999 21 -0.1 103750 80
2006-01-23 07:15:22 51°13.599 2°56.095 -999 356 -0.1 103750 80
2006-01-23 07:15:26 51°13.599 2°56.095 -999 347 -0.1 103750 81
2006-01-23 07:15:32 51°13.599 2°56.095 -999 347 -0.1 103750 81
2006-01-23 07:15:37 51°13.599 2°56.095 -999 340 -0.1 103750 81
2006-01-23 07:15:41 51°13.599 2°56.095 -999 351 -0.1 103750 81
2006-01-23 07:15:47 51°13.599 2°56.094 -999 357 -0.1 103750 81
2006-01-23 07:15:52 51°13.599 2°56.094 -999 8 -0.1 103750 81
2006-01-23 07:15:57 51°13.599 2°56.094 -999 13 -999 103750 81
2006-01-23 07:16:01 51°13.599 2°56.094 -999 9 -999 103750 81
2006-01-23 07:16:07 51°13.599 2°56.095 -999 1 -999 103750 81
2006-01-23 07:16:11 51°13.599 2°56.095 -999 355 -999 103750 81
2006-01-23 07:16:17 51°13.599 2°56.095 -999 6 -999 103750 81
2006-01-23 07:16:22 51°13.599 2°56.095 -999 32 -999 103750 81
2006-01-23 07:16:27 51°13.599 2°56.095 -999 356 -999 103750 81
2006-01-23 07:16:31 51°13.599 2°56.095 -999 6 -999 103750 81
2006-01-23 07:16:36 51°13.599 2°56.095 -999 1 -0.1 103750 81
2006-01-23 07:16:41 51°13.599 2°56.095 -999 360 -0.1 103750 81
2006-01-23 07:16:47 51°13.599 2°56.095 -999 358 -999 103750 81
2006-01-23 07:16:52 51°13.599 2°56.095 -999 358 -999 103750 81
2006-01-23 07:16:56 51°13.599 2°56.095 -999 2 -999 103750 81
2006-01-23 07:17:02 51°13.599 2°56.094 -999 357 -999 103750 81
2006-01-23 07:17:07 51°13.599 2°56.094 -999 356 -999 103750 81
2006-01-23 07:17:12 51°13.599 2°56.094 -999 11 -999 103750 81
2006-01-23 07:17:16 51°13.599 2°56.094 -999 4 -999 103750 81
2006-01-23 07:17:21 51°13.599 2°56.094 -999 355 -999 103750 81
2006-01-23 07:17:27 51°13.598 2°56.095 -999 10 -999 103750 81
2006-01-23 07:17:32 51°13.598 2°56.095 -999 6 -999 103750 81
2006-01-23 07:17:36 51°13.598 2°56.095 -999 4 -999 103750 80
2006-01-23 07:17:41 51°13.598 2°56.095 -999 359 -999 103750 80
2006-01-23 07:17:47 51°13.598 2°56.095 -999 3 -999 103750 80
2006-01-23 07:17:52 51°13.598 2°56.095 -999 355 -999 103750 80
2006-01-23 07:17:56 51°13.598 2°56.095 -999 2 -999 103750 80
2006-01-23 07:18:02 51°13.598 2°56.095 -999 355 -999 103750 80
2006-01-23 07:18:07 51°13.598 2°56.095 -999 349 -999 103750 80
2006-01-23 07:18:12 51°13.598 2°56.095 -999 351 -999 103750 80
2006-01-23 07:18:17 51°13.598 2°56.095 -999 351 -999 103750 80
2006-01-23 07:18:21 51°13.598 2°56.095 -999 354 -999 103750 80
2006-01-23 07:18:25 51°13.598 2°56.095 -999 344 -999 103750 80
2006-01-23 07:18:31 51°13.598 2°56.095 -999 337 -999 103750 80
2006-01-23 07:18:36 51°13.598 2°56.095 -999 328 -999 103750 80
2006-01-23 07:18:40 51°13.598 2°56.095 -999 343 -999 103750 80
2006-01-23 07:18:45 51°13.598 2°56.095 -999 350 -999 103750 80
2006-01-23 07:18:52 51°13.599 2°56.095 -999 355 -999 103750 80
2006-01-23 07:18:57 51°13.599 2°56.095 -999 344 -999 103750 80
2006-01-23 07:19:02 51°13.599 2°56.095 -999 346 -999 103750 80
2006-01-23 07:19:07 51°13.6 2°56.095 -999 346 -999 103750 80
2006-01-23 07:19:12 51°13.6 2°56.094 -999 337 -999 103750 80
2006-01-23 07:19:17 51°13.599 2°56.095 -999 353 -999 103750 80
2006-01-23 07:19:21 51°13.599 2°56.095 -999 360 -999 103750 80
2006-01-23 07:19:27 51°13.599 2°56.095 -999 358 -999 103750 80
2006-01-23 07:19:32 51°13.599 2°56.095 -999 350 -999 103750 80
2006-01-23 07:19:37 51°13.599 2°56.095 -999 353 -999 103750 80
2006-01-23 07:19:41 51°13.599 2°56.095 -999 354 -999 103750 80
2006-01-23 07:19:47 51°13.599 2°56.095 -999 356 -999 103750 80
2006-01-23 07:19:52 51°13.599 2°56.095 -999 349 -999 103750 80
2006-01-23 07:19:56 51°13.599 2°56.095 -999 1 -999 103750 80
2006-01-23 07:20:02 51°13.599 2°56.095 -999 17 -999 103750 80
2006-01-23 07:20:06 51°13.599 2°56.095 -999 -999 -999 103750 80
2006-01-23 07:20:11 51°13.599 2°56.095 -999 359 -999 103750 80
2006-01-23 07:20:17 51°13.599 2°56.095 -999 357 -999 103750 80
2006-01-23 07:20:22 51°13.599 2°56.095 -999 354 -999 103750 80
2006-01-23 07:20:27 51°13.599 2°56.095 -999 26 -999 103750 80
2006-01-23 07:20:32 51°13.599 2°56.095 -999 354 -999 103750 80
2006-01-23 07:20:37 51°13.599 2°56.095 -999 1 -999 103750 80
2006-01-23 07:20:41 51°13.599 2°56.095 -999 359 -999 103750 80
2006-01-23 07:20:45 51°13.599 2°56.095 -999 359 -999 103750 80
2006-01-23 07:20:52 51°13.599 2°56.094 -999 6 -999 103750 80
2006-01-23 07:20:56 51°13.599 2°56.094 -999 359 -999 103750 80
2006-01-23 07:21:02 51°13.599 2°56.094 -999 1 -999 103750 80
2006-01-23 07:21:07 51°13.598 2°56.094 -999 5 -999 103750 80
2006-01-23 07:21:12 51°13.599 2°56.094 -999 355 -999 103750 80
2006-01-23 07:21:17 51°13.599 2°56.094 -999 357 -999 103750 80
2006-01-23 07:21:22 51°13.599 2°56.094 -999 6 -999 103750 80
2006-01-23 07:21:27 51°13.599 2°56.094 -999 3 -999 103750 80
2006-01-23 07:21:32 51°13.599 2°56.094 -999 1 -999 103750 80
2006-01-23 07:21:37 51°13.599 2°56.094 -999 2 -999 103750 80
2006-01-23 07:21:42 51°13.599 2°56.094 -999 4 -999 103750 80
2006-01-23 07:21:47 51°13.599 2°56.094 -999 12 -999 103750 80
2006-01-23 07:21:52 51°13.599 2°56.094 -999 18 -999 103750 80
2006-01-23 07:21:56 51°13.599 2°56.094 -999 51 -999 103750 80
2006-01-23 07:22:01 51°13.599 2°56.094 -999 18 -999 103750 80
2006-01-23 07:22:06 51°13.599 2°56.093 -999 360 -999 103750 80
2006-01-23 07:22:12 51°13.599 2°56.093 -999 9 -999 103750 80
2006-01-23 07:22:16 51°13.599 2°56.093 -999 29 -999 103750 80
2006-01-23 07:22:22 51°13.599 2°56.093 -999 18 -999 103750 80
2006-01-23 07:22:27 51°13.6 2°56.093 -999 8 -999 103750 81
2006-01-23 07:22:32 51°13.6 2°56.093 -999 354 -999 103750 81
2006-01-23 07:22:37 51°13.6 2°56.093 -999 1 0.1 103750 81
2006-01-23 07:22:41 51°13.6 2°56.093 -999 5 0.1 103750 81
2006-01-23 07:22:46 51°13.6 2°56.093 -999 7 0.1 103750 81
2006-01-23 07:22:52 51°13.6 2°56.093 -999 19 0.1 103750 81
2006-01-23 07:22:56 51°13.6 2°56.093 -999 353 0.1 103750 81
2006-01-23 07:23:02 51°13.6 2°56.094 -999 29 0.1 103750 81
2006-01-23 07:23:05 51°13.599 2°56.094 -999 22 0.1 103750 81
2006-01-23 07:23:12 51°13.599 2°56.094 -999 12 0.1 103750 81
2006-01-23 07:23:16 51°13.6 2°56.094 -999 357 0.1 103740 81
2006-01-23 07:23:22 51°13.6 2°56.094 -999 346 0.1 103740 81
2006-01-23 07:23:27 51°13.6 2°56.094 -999 359 0.1 103750 81
2006-01-23 07:23:32 51°13.6 2°56.094 -999 357 0.1 103750 81
2006-01-23 07:23:36 51°13.6 2°56.094 -999 359 0.1 103750 81
2006-01-23 07:23:41 51°13.6 2°56.094 -999 2 0.1 103750 81
2006-01-23 07:23:47 51°13.6 2°56.094 -999 4 0.1 103740 81
2006-01-23 07:23:52 51°13.6 2°56.094 -999 18 0.1 103740 81
2006-01-23 07:23:57 51°13.6 2°56.094 -999 26 0.1 103740 81
2006-01-23 07:24:01 51°13.6 2°56.094 -999 2 0.1 103740 81
2006-01-23 07:24:07 51°13.6 2°56.094 -999 32 0.1 103740 81
2006-01-23 07:24:12 51°13.6 2°56.094 -999 20 0.1 103740 81
2006-01-23 07:24:16 51°13.6 2°56.094 -999 347 0.1 103740 81
2006-01-23 07:24:21 51°13.6 2°56.094 -999 350 0.1 103740 81
2006-01-23 07:24:27 51°13.6 2°56.094 -999 352 0.1 103750 81
2006-01-23 07:24:32 51°13.6 2°56.094 -999 357 0.1 103750 81
2006-01-23 07:24:37 51°13.6 2°56.094 -999 23 0.1 103740 81
2006-01-23 07:24:41 51°13.6 2°56.094 -999 12 0.1 103740 81
2006-01-23 07:24:45 51°13.601 2°56.094 -999 359 0.1 103750 81
2006-01-23 07:24:52 51°13.601 2°56.094 -999 359 0.1 103750 81
2006-01-23 07:24:57 51°13.601 2°56.094 -999 341 0.1 103750 81
2006-01-23 07:25:02 51°13.601 2°56.094 -999 -999 0.1 103750 81
2006-01-23 07:25:07 51°13.601 2°56.094 -999 351 0.1 103750 81
2006-01-23 07:25:11 51°13.601 2°56.094 -999 346 0.1 103750 81
2006-01-23 07:25:17 51°13.601 2°56.094 -999 334 0.1 103750 81
2006-01-23 07:25:22 51°13.601 2°56.094 -999 347 0.1 103750 81
2006-01-23 07:25:27 51°13.601 2°56.094 -999 355 0.1 103750 81
2006-01-23 07:25:31 51°13.601 2°56.094 -999 350 0.1 103750 81
2006-01-23 07:25:37 51°13.601 2°56.094 -999 345 0.1 103750 81
2006-01-23 07:25:42 51°13.6 2°56.095 -999 339 0.1 103750 81
2006-01-23 07:25:47 51°13.6 2°56.095 -999 339 0.1 103750 81
2006-01-23 07:25:52 51°13.6 2°56.095 -999 3 0.1 103750 81
2006-01-23 07:25:57 51°13.6 2°56.095 -999 358 0.1 103750 80
2006-01-23 07:26:01 51°13.6 2°56.095 -999 348 0.1 103750 80
2006-01-23 07:26:07 51°13.6 2°56.095 -999 345 0.1 103750 80
2006-01-23 07:26:12 51°13.6 2°56.095 -999 342 0.1 103750 80
2006-01-23 07:26:17 51°13.6 2°56.095 -999 355 0.1 103750 80
2006-01-23 07:26:21 51°13.6 2°56.095 -999 357 0.1 103750 80
2006-01-23 07:26:27 51°13.6 2°56.095 -999 359 0.1 103750 80
2006-01-23 07:26:32 51°13.6 2°56.095 -999 349 0.1 103750 80
2006-01-23 07:26:36 51°13.6 2°56.095 -999 2 0.1 103750 80
2006-01-23 07:26:42 51°13.6 2°56.095 -999 356 0.1 103750 80
2006-01-23 07:26:46 51°13.6 2°56.095 -999 353 0.1 103740 80
2006-01-23 07:26:52 51°13.6 2°56.095 -999 358 0.1 103740 80
2006-01-23 07:26:57 51°13.6 2°56.095 -999 353 0.1 103750 80
2006-01-23 07:27:01 51°13.6 2°56.095 -999 352 0.1 103750 80
2006-01-23 07:27:05 51°13.6 2°56.095 -999 359 0.1 103750 80
2006-01-23 07:27:12 51°13.6 2°56.095 -999 351 0.1 103750 80
2006-01-23 07:27:17 51°13.6 2°56.095 -999 342 0.1 103740 80
2006-01-23 07:27:21 51°13.6 2°56.095 -999 330 0.1 103740 80
2006-01-23 07:27:27 51°13.6 2°56.095 -999 330 0.1 103750 79
2006-01-23 07:27:32 51°13.6 2°56.095 -999 357 0.1 103750 79
2006-01-23 07:27:37 51°13.6 2°56.095 -999 349 0.1 103750 79
2006-01-23 07:27:42 51°13.6 2°56.095 -999 349 0.1 103750 79
2006-01-23 07:27:47 51°13.6 2°56.094 -999 351 0.1 103750 80
2006-01-23 07:27:52 51°13.6 2°56.094 -999 348 0.1 103750 80
2006-01-23 07:27:57 51°13.6 2°56.094 -999 356 0.1 103740 80
2006-01-23 07:28:02 51°13.6 2°56.095 -999 348 0.1 103740 80
2006-01-23 07:28:07 51°13.6 2°56.094 -999 6 0.1 103750 80
2006-01-23 07:28:12 51°13.6 2°56.095 -999 359 0.1 103750 80
2006-01-23 07:28:17 51°13.6 2°56.095 -999 4 0.1 103740 80
2006-01-23 07:28:21 51°13.6 2°56.095 -999 354 0.1 103740 80
2006-01-23 07:28:27 51°13.6 2°56.095 -999 356 0.1 103740 79
2006-01-23 07:28:32 51°13.6 2°56.095 -999 352 0.1 103740 79
2006-01-23 07:28:37 51°13.6 2°56.095 -999 340 0.1 103750 79
2006-01-23 07:28:41 51°13.6 2°56.095 -999 357 0.1 103750 79
2006-01-23 07:28:47 51°13.6 2°56.095 -999 356 -999 103750 79
2006-01-23 07:28:52 51°13.6 2°56.095 -999 359 -999 103750 79
2006-01-23 07:28:57 51°13.6 2°56.095 -999 1 0.1 103750 79
2006-01-23 07:29:01 51°13.599 2°56.095 -999 356 0.1 103750 79
2006-01-23 07:29:07 51°13.599 2°56.096 -999 339 0.1 103750 79
2006-01-23 07:29:12 51°13.599 2°56.096 -999 353 0.1 103750 79
2006-01-23 07:29:17 51°13.599 2°56.096 -999 2 0.1 103740 79
2006-01-23 07:29:21 51°13.599 2°56.096 -999 354 0.1 103740 79
2006-01-23 07:29:25 51°13.599 2°56.096 -999 356 -999 103740 79
2006-01-23 07:29:32 51°13.599 2°56.095 -999 11 -999 103740 79
2006-01-23 07:29:37 51°13.599 2°56.096 -999 1 -999 103750 79
2006-01-23 07:29:42 51°13.599 2°56.096 -999 16 -999 103750 79
2006-01-23 07:29:46 51°13.599 2°56.096 -999 29 0.1 103750 79
2006-01-23 07:29:52 51°13.599 2°56.095 -999 353 0.1 103750 79
2006-01-23 07:29:57 51°13.599 2°56.095 -999 16 0.1 103750 79
2006-01-23 07:30:02 51°13.599 2°56.095 -999 6 0.1 103750 79
2006-01-23 07:30:07 51°13.599 2°56.095 -999 28 0.1 103750 80
2006-01-23 07:30:12 51°13.599 2°56.095 -999 3 0.1 103750 80
2006-01-23 07:30:16 51°13.599 2°56.095 -999 360 0.1 103750 80
2006-01-23 07:30:22 51°13.599 2°56.095 -999 6 0.1 103750 80
2006-01-23 07:30:27 51°13.599 2°56.095 -999 10 0.1 103750 80
2006-01-23 07:30:32 51°13.599 2°56.095 -999 11 0.1 103750 80
2006-01-23 07:30:37 51°13.599 2°56.095 -999 4 0.1 103750 80
2006-01-23 07:30:41 51°13.599 2°56.095 -999 357 0.1 103750 80
2006-01-23 07:30:47 51°13.599 2°56.095 -999 32 0.1 103740 80
2006-01-23 07:30:52 51°13.599 2°56.095 -999 357 0.1 103740 80
2006-01-23 07:30:57 51°13.599 2°56.095 -999 357 0.1 103750 80
2006-01-23 07:31:02 51°13.599 2°56.095 -999 360 0.1 103750 80
2006-01-23 07:31:07 51°13.599 2°56.095 -999 357 0.1 103750 80
2006-01-23 07:31:12 51°13.599 2°56.095 -999 4 0.1 103750 80
2006-01-23 07:31:16 51°13.599 2°56.095 -999 353 0.1 103750 80
2006-01-23 07:31:21 51°13.599 2°56.095 -999 359 0.1 103750 80
2006-01-23 07:31:27 51°13.599 2°56.095 -999 349 0.1 103750 80
2006-01-23 07:31:32 51°13.599 2°56.095 -999 344 0.1 103750 80
2006-01-23 07:31:37 51°13.599 2°56.095 -999 342 0.1 103750 80
2006-01-23 07:31:41 51°13.599 2°56.095 -999 359 0.1 103750 80
2006-01-23 07:31:47 51°13.599 2°56.095 -999 4 0.1 103750 80
2006-01-23 07:31:52 51°13.599 2°56.095 -999 359 0.1 103750 80
2006-01-23 07:31:57 51°13.599 2°56.095 -999 345 0.2 103750 80
2006-01-23 07:32:02 51°13.599 2°56.095 -999 359 0.2 103750 80
2006-01-23 07:32:07 51°13.599 2°56.095 -999 -999 0.2 103750 80
2006-01-23 07:32:12 51°13.599 2°56.095 -999 3 0.2 103750 80
2006-01-23 07:32:17 51°13.599 2°56.095 -999 352 0.1 103750 80
2006-01-23 07:32:20 51°13.599 2°56.095 -999 349 0.1 103750 80
2006-01-23 07:32:27 51°13.599 2°56.095 -999 343 0.2 103750 80
2006-01-23 07:32:32 51°13.599 2°56.095 -999 356 0.2 103750 80
2006-01-23 07:32:36 51°13.599 2°56.095 -999 336 0.2 103750 80
2006-01-23 07:32:42 51°13.599 2°56.095 -999 328 0.2 103750 80
2006-01-23 07:32:47 51°13.599 2°56.095 -999 340 0.2 103750 80
2006-01-23 07:32:52 51°13.599 2°56.095 -999 335 0.2 103750 80
2006-01-23 07:32:57 51°13.599 2°56.095 -999 338 0.2 103750 80
2006-01-23 07:33:01 51°13.599 2°56.095 -999 352 0.2 103750 80
2006-01-23 07:33:07 51°13.599 2°56.096 -999 337 0.2 103750 80
2006-01-23 07:33:12 51°13.599 2°56.096 -999 350 0.2 103750 80
2006-01-23 07:33:17 51°13.599 2°56.096 -999 351 0.2 103750 80
2006-01-23 07:33:21 51°13.599 2°56.096 -999 341 0.2 103750 80
2006-01-23 07:33:27 51°13.599 2°56.096 -999 355 0.2 103750 80
2006-01-23 07:33:32 51°13.599 2°56.096 -999 352 0.2 103750 80
2006-01-23 07:33:37 51°13.599 2°56.096 -999 338 0.2 103750 80
2006-01-23 07:33:41 51°13.599 2°56.096 -999 329 0.2 103750 80
2006-01-23 07:33:46 51°13.599 2°56.096 -999 341 0.2 103750 80
2006-01-23 07:33:52 51°13.599 2°56.096 -999 359 0.2 103750 80
2006-01-23 07:33:57 51°13.599 2°56.096 -999 6 0.2 103750 80
2006-01-23 07:34:01 51°13.599 2°56.096 -999 357 0.2 103750 80
2006-01-23 07:34:06 51°13.599 2°56.096 -999 2 0.2 103750 80
2006-01-23 07:34:12 51°13.599 2°56.095 -999 329 0.2 103750 80
2006-01-23 07:34:17 51°13.599 2°56.095 -999 318 0.2 103750 80
2006-01-23 07:34:21 51°13.599 2°56.095 -999 349 0.2 103750 80
2006-01-23 07:34:27 51°13.599 2°56.095 -999 335 0.2 103750 80
2006-01-23 07:34:32 51°13.599 2°56.095 -999 359 0.2 103750 80
2006-01-23 07:34:37 51°13.599 2°56.095 -999 353 0.2 103750 80
2006-01-23 07:34:42 51°13.599 2°56.095 -999 319 0.2 103750 80
2006-01-23 07:34:47 51°13.599 2°56.095 -999 341 0.2 103750 80
2006-01-23 07:34:52 51°13.599 2°56.095 -999 341 0.2 103750 80
2006-01-23 07:34:56 51°13.599 2°56.095 -999 350 0.2 103750 80
2006-01-23 07:35:02 51°13.599 2°56.095 -999 346 0.2 103750 80
2006-01-23 07:35:07 51°13.599 2°56.096 -999 336 0.2 103750 80
2006-01-23 07:35:12 51°13.599 2°56.095 -999 355 0.2 103750 80
2006-01-23 07:35:16 51°13.599 2°56.095 -999 336 0.2 103750 80
2006-01-23 07:35:21 51°13.599 2°56.095 -999 353 0.2 103750 80
2006-01-23 07:35:25 51°13.599 2°56.095 -999 352 0.2 103750 80
2006-01-23 07:35:32 51°13.599 2°56.095 -999 337 0.2 103750 80
2006-01-23 07:35:36 51°13.599 2°56.095 -999 332 0.2 103750 80
2006-01-23 07:35:41 51°13.599 2°56.095 -999 8 0.2 103750 80
2006-01-23 07:35:45 51°13.599 2°56.095 -999 354 0.2 103750 80
2006-01-23 07:35:52 51°13.599 2°56.095 -999 -999 0.2 103750 80
2006-01-23 07:35:56 51°13.599 2°56.095 -999 1 0.2 103740 80
2006-01-23 07:36:01 51°13.599 2°56.095 -999 353 0.2 103740 80
2006-01-23 07:36:05 51°13.6 2°56.095 -999 351 0.2 103740 80
2006-01-23 07:36:12 51°13.6 2°56.095 -999 345 0.2 103740 80
2006-01-23 07:36:17 51°13.6 2°56.095 -999 357 0.2 103750 80
2006-01-23 07:36:21 51°13.6 2°56.095 -999 -999 0.2 103750 80
2006-01-23 07:36:25 51°13.6 2°56.095 -999 350 0.2 103750 80
2006-01-23 07:36:32 51°13.6 2°56.095 -999 6 0.2 103750 80
2006-01-23 07:36:36 51°13.6 2°56.095 -999 359 0.2 103750 80
2006-01-23 07:36:41 51°13.6 2°56.095 -999 348 0.2 103750 80
2006-01-23 07:36:45 51°13.601 2°56.095 -999 349 0.2 103750 80
2006-01-23 07:36:51 51°13.6 2°56.095 -999 359 0.2 103750 80
2006-01-23 07:36:57 51°13.6 2°56.095 -999 2 0.2 103740 80
2006-01-23 07:37:01 51°13.6 2°56.095 -999 358 0.2 103740 80
2006-01-23 07:37:06 51°13.6 2°56.095 -999 352 0.2 103750 80
2006-01-23 07:37:12 51°13.6 2°56.095 -999 359 0.2 103750 80
2006-01-23 07:37:16 51°13.6 2°56.094 -999 351 0.2 103740 80
2006-01-23 07:37:22 51°13.6 2°56.095 -999 358 0.2 103740 80
2006-01-23 07:37:27 51°13.6 2°56.095 -999 1 0.2 103740 80
2006-01-23 07:37:31 51°13.6 2°56.095 -999 349 0.2 103740 80
2006-01-23 07:37:37 51°13.6 2°56.095 -999 15 0.2 103750 80
2006-01-23 07:37:41 51°13.6 2°56.095 -999 4 0.2 103750 80
2006-01-23 07:37:45 51°13.6 2°56.095 -999 18 0.2 103740 80
2006-01-23 07:37:52 51°13.6 2°56.095 -999 5 0.2 103740 80
2006-01-23 07:37:56 51°13.6 2°56.095 -999 17 0.2 103750 80
2006-01-23 07:38:01 51°13.6 2°56.095 -999 360 0.2 103750 80
2006-01-23 07:38:06 51°13.6 2°56.095 -999 354 0.2 103750 80
2006-01-23 07:38:11 51°13.6 2°56.095 -999 9 0.2 103750 80
2006-01-23 07:38:16 51°13.599 2°56.096 -999 350 0.2 103750 80
2006-01-23 07:38:21 51°13.599 2°56.096 -999 358 0.2 103750 80
2006-01-23 07:38:26 51°13.599 2°56.096 -999 351 0.2 103750 80
2006-01-23 07:38:32 51°13.599 2°56.096 -999 359 0.2 103750 80
2006-01-23 07:38:37 51°13.599 2°56.096 -999 358 0.2 103740 80
2006-01-23 07:38:42 51°13.599 2°56.096 -999 357 0.2 103740 80
2006-01-23 07:38:47 51°13.599 2°56.096 -999 360 0.2 103750 80
2006-01-23 07:38:52 51°13.599 2°56.096 -999 50 0.2 103750 80
2006-01-23 07:38:57 51°13.599 2°56.096 -999 34 0.2 103750 80
2006-01-23 07:39:01 51°13.599 2°56.096 -999 14 0.2 103750 80
2006-01-23 07:39:05 51°13.599 2°56.096 -999 355 0.2 103750 80
2006-01-23 07:39:12 51°13.599 2°56.096 -999 359 0.2 103750 80
2006-01-23 07:39:16 51°13.598 2°56.097 -999 355 0.2 103750 80
2006-01-23 07:39:21 51°13.598 2°56.097 -999 7 0.2 103750 80
2006-01-23 07:39:25 51°13.598 2°56.097 -999 -999 0.2 103750 80
2006-01-23 07:39:31 51°13.598 2°56.097 -999 2 0.2 103750 80
2006-01-23 07:39:36 51°13.598 2°56.097 -999 358 0.2 103750 80
2006-01-23 07:39:41 51°13.598 2°56.097 -999 20 0.2 103750 80
2006-01-23 07:39:45 51°13.598 2°56.097 -999 32 0.2 103750 80
2006-01-23 07:39:52 51°13.598 2°56.097 -999 27 0.2 103750 80
2006-01-23 07:39:56 51°13.598 2°56.097 -999 332 0.2 103740 80
2006-01-23 07:40:01 51°13.598 2°56.097 -999 4 0.2 103740 80
2006-01-23 07:40:06 51°13.598 2°56.097 -999 2 0.2 103750 80
2006-01-23 07:40:11 51°13.598 2°56.097 -999 359 0.2 103750 80
2006-01-23 07:40:16 51°13.598 2°56.097 -999 23 0.2 103750 80
2006-01-23 07:40:21 51°13.598 2°56.097 -999 10 0.2 103750 80
2006-01-23 07:40:27 51°13.598 2°56.097 -999 44 0.2 103750 81
2006-01-23 07:40:32 51°13.598 2°56.097 -999 28 0.2 103750 81
2006-01-23 07:40:36 51°13.598 2°56.097 -999 1 0.2 103750 81
2006-01-23 07:40:41 51°13.598 2°56.098 -999 22 0.2 103750 81
2006-01-23 07:40:47 51°13.597 2°56.097 -999 7 0.2 103750 81
2006-01-23 07:40:51 51°13.597 2°56.097 -999 357 0.2 103750 81
2006-01-23 07:40:57 51°13.597 2°56.097 -999 354 0.2 103750 80
2006-01-23 07:41:01 51°13.597 2°56.097 -999 13 0.2 103750 80
2006-01-23 07:41:07 51°13.597 2°56.097 -999 16 0.2 103750 80
2006-01-23 07:41:11 51°13.596 2°56.097 -999 15 0.2 103750 80
2006-01-23 07:41:16 51°13.596 2°56.097 -999 30 0.2 103750 80
2006-01-23 07:41:21 51°13.596 2°56.096 -999 5 0.2 103750 80
2006-01-23 07:41:25 51°13.596 2°56.095 -999 349 0.2 103740 80
2006-01-23 07:41:31 51°13.597 2°56.092 -999 36 0.2 103740 80
2006-01-23 07:41:36 51°13.598 2°56.09 -999 48 0.2 103740 80
2006-01-23 07:41:42 51°13.598 2°56.086 -999 346 0.2 103740 80
2006-01-23 07:41:47 51°13.599 2°56.082 -999 14 0.2 103750 80
2006-01-23 07:41:52 51°13.6 2°56.078 -999 2 0.2 103750 80
2006-01-23 07:41:57 51°13.602 2°56.074 -999 332 0.2 103750 80
2006-01-23 07:42:02 51°13.603 2°56.069 -999 8 0.2 103750 80
2006-01-23 07:42:07 51°13.604 2°56.064 -999 355 0.2 103750 80
2006-01-23 07:42:12 51°13.606 2°56.058 -999 350 0.2 103750 80
2006-01-23 07:42:17 51°13.607 2°56.053 -999 358 0.2 103750 80
2006-01-23 07:42:21 51°13.608 2°56.048 -999 10 0.2 103750 80
2006-01-23 07:42:27 51°13.611 2°56.041 -999 14 0.2 103750 80
2006-01-23 07:42:32 51°13.612 2°56.034 -999 17 0.2 103750 80
2006-01-23 07:42:37 51°13.614 2°56.028 -999 335 0.2 103750 80
2006-01-23 07:42:41 51°13.615 2°56.022 -999 347 0.2 103750 80
2006-01-23 07:42:47 51°13.618 2°56.014 -999 334 0.2 103750 80
2006-01-23 07:42:52 51°13.619 2°56.007 -999 340 0.2 103750 80
2006-01-23 07:42:57 51°13.621 2°56 -999 354 0.2 103750 80
2006-01-23 07:43:01 51°13.623 2°55.994 -999 358 0.2 103750 80
2006-01-23 07:43:07 51°13.625 2°55.985 -999 356 0.2 103750 80
2006-01-23 07:43:12 51°13.628 2°55.977 -999 18 0.2 103750 80
2006-01-23 07:43:17 51°13.63 2°55.969 -999 15 0.2 103750 80
2006-01-23 07:43:21 51°13.632 2°55.962 -999 21 0.2 103750 80
2006-01-23 07:43:27 51°13.635 2°55.952 -999 344 0.2 103750 80
2006-01-23 07:43:32 51°13.638 2°55.943 -999 57 0.2 103750 80
2006-01-23 07:43:37 51°13.641 2°55.934 -999 56 0.2 103750 80
2006-01-23 07:43:41 51°13.643 2°55.926 -999 327 0.2 103750 80
2006-01-23 07:43:47 51°13.647 2°55.914 -999 343 0.2 103750 80
2006-01-23 07:43:52 51°13.65 2°55.905 -999 319 0.2 103750 80
2006-01-23 07:43:57 51°13.654 2°55.894 -999 339 0.2 103750 80
2006-01-23 07:44:01 51°13.657 2°55.886 -999 349 0.2 103750 80
2006-01-23 07:44:07 51°13.661 2°55.874 -999 352 0.1 103750 80
2006-01-23 07:44:12 51°13.665 2°55.864 -999 8 0.1 103750 80
2006-01-23 07:44:17 51°13.668 2°55.853 -999 10 0.2 103750 80
2006-01-23 07:44:21 51°13.671 2°55.845 -999 352 0.2 103750 80
2006-01-23 07:44:27 51°13.676 2°55.832 -999 351 0.2 103740 80
2006-01-23 07:44:32 51°13.68 2°55.821 -999 340 0.2 103740 80
2006-01-23 07:44:37 51°13.683 2°55.81 -999 2 0.2 103750 80
2006-01-23 07:44:41 51°13.686 2°55.802 -999 357 0.2 103750 80
2006-01-23 07:44:47 51°13.689 2°55.791 -999 19 0.2 103750 80
2006-01-23 07:44:52 51°13.692 2°55.781 -999 14 0.2 103750 80
2006-01-23 07:44:57 51°13.694 2°55.772 -999 27 0.2 103750 80
2006-01-23 07:45:01 51°13.696 2°55.765 -999 45 0.2 103750 80
2006-01-23 07:45:05 51°13.698 2°55.758 -999 44 0.2 103750 80
2006-01-23 07:45:12 51°13.7 2°55.746 -999 43 0.2 103750 80
2006-01-23 07:45:17 51°13.702 2°55.738 -999 38 0.2 103750 80
2006-01-23 07:45:21 51°13.703 2°55.733 -999 44 0.2 103750 80
2006-01-23 07:45:27 51°13.704 2°55.725 -999 48 0.2 103750 80
2006-01-23 07:45:32 51°13.704 2°55.72 -999 41 0.2 103750 80
2006-01-23 07:45:37 51°13.705 2°55.716 -999 48 0.2 103750 80
2006-01-23 07:45:41 51°13.705 2°55.714 -999 46 0.2 103750 80
2006-01-23 07:45:47 51°13.706 2°55.712 -999 42 0.2 103750 80
2006-01-23 07:45:51 51°13.706 2°55.711 -999 55 0.2 103750 80
2006-01-23 07:45:57 51°13.707 2°55.71 -999 57 0.1 103750 80
2006-01-23 07:46:01 51°13.707 2°55.71 -999 70 0.1 103750 80
2006-01-23 07:46:05 51°13.708 2°55.71 -999 77 0.1 103750 80
2006-01-23 07:46:12 51°13.71 2°55.711 -999 86 0.1 103750 80
2006-01-23 07:46:17 51°13.711 2°55.711 -999 80 0.1 103750 80
2006-01-23 07:46:21 51°13.713 2°55.712 -999 92 0.1 103750 80
2006-01-23 07:46:27 51°13.715 2°55.712 -999 108 0.1 103740 80
2006-01-23 07:46:32 51°13.716 2°55.713 -999 109 0.1 103740 80
2006-01-23 07:46:36 51°13.718 2°55.713 -999 116 0.1 103740 79
2006-01-23 07:46:41 51°13.721 2°55.713 -999 117 0.1 103740 79
2006-01-23 07:46:47 51°13.724 2°55.713 -999 123 0.1 103740 79
2006-01-23 07:46:52 51°13.727 2°55.713 -999 121 0.1 103740 79
2006-01-23 07:46:57 51°13.73 2°55.712 -999 130 0.1 103740 80
2006-01-23 07:47:01 51°13.733 2°55.711 -999 125 0.1 103740 80
2006-01-23 07:47:07 51°13.737 2°55.71 -999 126 0.1 103750 80
2006-01-23 07:47:12 51°13.742 2°55.707 -999 131 0.1 103750 80
2006-01-23 07:47:17 51°13.746 2°55.704 -999 143 0.1 103750 80
2006-01-23 07:47:21 51°13.749 2°55.702 -999 160 0.1 103750 80
2006-01-23 07:47:27 51°13.755 2°55.697 -999 161 0.1 103750 80
2006-01-23 07:47:32 51°13.76 2°55.693 -999 160 0.1 103750 80
2006-01-23 07:47:37 51°13.766 2°55.689 -999 160 0.2 103750 81
2006-01-23 07:47:41 51°13.77 2°55.685 -999 141 0.2 103750 81
2006-01-23 07:47:45 51°13.775 2°55.681 -999 140 0.2 103750 81
2006-01-23 07:47:51 51°13.783 2°55.675 -999 146 0.2 103750 81
2006-01-23 07:47:57 51°13.791 2°55.668 -999 146 0.2 103750 80
2006-01-23 07:48:01 51°13.796 2°55.664 -999 136 0.2 103750 80
2006-01-23 07:48:05 51°13.802 2°55.659 -999 137 0.1 103750 80
2006-01-23 07:48:11 51°13.811 2°55.652 -999 134 0.1 103750 80
2006-01-23 07:48:17 51°13.82 2°55.645 -999 133 0.1 103750 80
2006-01-23 07:48:21 51°13.826 2°55.64 -999 134 0.1 103750 80
2006-01-23 07:48:27 51°13.836 2°55.632 -999 133 0.1 103750 80
2006-01-23 07:48:32 51°13.844 2°55.626 -999 142 0.1 103750 80
2006-01-23 07:48:36 51°13.85 2°55.62 -999 143 0.1 103750 80
2006-01-23 07:48:41 51°13.858 2°55.613 -999 136 0.1 103750 80
2006-01-23 07:48:47 51°13.868 2°55.605 -999 136 0.1 103750 80
2006-01-23 07:48:52 51°13.877 2°55.598 -999 136 0.1 103750 80
2006-01-23 07:48:56 51°13.884 2°55.592 -999 123 0.1 103750 80
2006-01-23 07:49:01 51°13.892 2°55.585 -999 118 0.1 103750 80
2006-01-23 07:49:05 51°13.899 2°55.579 -999 99 0.1 103750 80
2006-01-23 07:49:12 51°13.911 2°55.569 -999 96 0.1 103750 80
2006-01-23 07:49:17 51°13.92 2°55.562 -999 108 0.1 103750 80
2006-01-23 07:49:21 51°13.927 2°55.556 -999 127 0.1 103750 80
2006-01-23 07:49:27 51°13.938 2°55.547 -999 139 0.1 103750 80
2006-01-23 07:49:31 51°13.945 2°55.542 -999 92 0.1 103750 80
2006-01-23 07:49:37 51°13.956 2°55.533 -999 149 0.1 103750 80
2006-01-23 07:49:41 51°13.963 2°55.528 -999 112 0.1 103750 80
2006-01-23 07:49:47 51°13.974 2°55.52 -999 115 0.1 103750 80
2006-01-23 07:49:51 51°13.981 2°55.515 -999 130 0.1 103750 80
2006-01-23 07:49:57 51°13.992 2°55.507 -999 123 0.1 103750 80
2006-01-23 07:50:01 51°14 2°55.502 -999 141 0.1 103750 80
2006-01-23 07:50:05 51°14.007 2°55.496 -999 138 0.1 103750 80
2006-01-23 07:50:12 51°14.02 2°55.488 -999 139 0.1 103750 80
2006-01-23 07:50:17 51°14.028 2°55.481 -999 107 0.1 103750 80
2006-01-23 07:50:21 51°14.035 2°55.476 -999 109 0.1 103750 80
2006-01-23 07:50:25 51°14.042 2°55.471 -999 128 0.1 103750 80
2006-01-23 07:50:32 51°14.054 2°55.464 -999 149 0.1 103750 80
2006-01-23 07:50:37 51°14.062 2°55.458 -999 146 0.1 103760 80
2006-01-23 07:50:41 51°14.069 2°55.453 -999 159 0.1 103760 80
2006-01-23 07:50:46 51°14.077 2°55.447 -999 161 0.1 103750 80
2006-01-23 07:50:52 51°14.087 2°55.44 -999 155 0.1 103750 80
2006-01-23 07:50:56 51°14.094 2°55.435 -999 162 0.1 103750 80
2006-01-23 07:51:01 51°14.103 2°55.429 -999 163 0.1 103750 80
2006-01-23 07:51:07 51°14.114 2°55.421 -999 142 0.1 103750 80
2006-01-23 07:51:12 51°14.123 2°55.414 -999 137 0.1 103750 80
2006-01-23 07:51:16 51°14.13 2°55.408 -999 131 0.1 103750 80
2006-01-23 07:51:21 51°14.14 2°55.401 -999 136 0.1 103750 80
2006-01-23 07:51:27 51°14.152 2°55.391 -999 140 0.1 103750 80
2006-01-23 07:51:32 51°14.162 2°55.383 -999 141 0.1 103750 80
2006-01-23 07:51:36 51°14.171 2°55.375 -999 123 0.1 103740 80
2006-01-23 07:51:41 51°14.181 2°55.364 -999 99 0.1 103740 80
2006-01-23 07:51:47 51°14.194 2°55.351 -999 103 0.1 103740 80
2006-01-23 07:51:52 51°14.204 2°55.339 -999 112 0.1 103740 80
2006-01-23 07:51:57 51°14.215 2°55.326 -999 114 0.1 103730 80
2006-01-23 07:52:01 51°14.223 2°55.315 -999 115 0.1 103730 80
2006-01-23 07:52:05 51°14.231 2°55.304 -999 117 0.1 103730 80
2006-01-23 07:52:12 51°14.245 2°55.284 -999 114 0.1 103730 80
2006-01-23 07:52:17 51°14.255 2°55.269 -999 112 0.1 103730 80
2006-01-23 07:52:21 51°14.263 2°55.256 -999 107 0.1 103730 80
2006-01-23 07:52:25 51°14.27 2°55.243 -999 107 0.1 103730 80
2006-01-23 07:52:31 51°14.282 2°55.223 -999 107 0.1 103730 80
2006-01-23 07:52:37 51°14.292 2°55.202 -999 107 0.1 103730 80
2006-01-23 07:52:41 51°14.3 2°55.188 -999 65 0.1 103730 80
2006-01-23 07:52:45 51°14.307 2°55.174 -999 323 0.1 103730 80
2006-01-23 07:52:52 51°14.32 2°55.148 -999 339 0.1 103730 80
2006-01-23 07:52:57 51°14.329 2°55.129 -999 4 0.1 103730 80
2006-01-23 07:53:01 51°14.337 2°55.113 -999 3 0.1 103730 80
2006-01-23 07:53:07 51°14.347 2°55.09 -999 9 0.1 103730 80
2006-01-23 07:53:12 51°14.357 2°55.07 -999 48 0.1 103730 80
2006-01-23 07:53:16 51°14.364 2°55.055 -999 53 0.1 103730 80
2006-01-23 07:53:21 51°14.374 2°55.036 -999 45 0.1 103730 80
2006-01-23 07:53:27 51°14.387 2°55.014 -999 51 0.2 103730 80
2006-01-23 07:53:32 51°14.398 2°54.996 -999 55 0.2 103730 80
2006-01-23 07:53:36 51°14.407 2°54.983 -999 75 0.1 103730 80
2006-01-23 07:53:41 51°14.418 2°54.966 -999 57 0.1 103730 80
2006-01-23 07:53:47 51°14.432 2°54.946 -999 64 0.2 103730 80
2006-01-23 07:53:52 51°14.444 2°54.929 -999 91 0.2 103730 80
2006-01-23 07:53:56 51°14.453 2°54.915 -999 88 0.2 103730 80
2006-01-23 07:54:01 51°14.465 2°54.897 -999 92 0.2 103730 80
2006-01-23 07:54:05 51°14.475 2°54.884 -999 91 0.2 103730 80
2006-01-23 07:54:12 51°14.493 2°54.86 -999 78 0.2 103730 80
2006-01-23 07:54:17 51°14.506 2°54.842 -999 75 0.2 103730 80
2006-01-23 07:54:21 51°14.517 2°54.828 -999 78 0.2 103730 80
2006-01-23 07:54:25 51°14.529 2°54.816 -999 82 0.2 103720 80
2006-01-23 07:54:32 51°14.55 2°54.794 -999 88 0.2 103720 80
2006-01-23 07:54:37 51°14.566 2°54.78 -999 81 0.2 103720 80
2006-01-23 07:54:41 51°14.579 2°54.768 -999 76 0.2 103720 80
2006-01-23 07:54:45 51°14.592 2°54.758 -999 75 0.1 103710 80
2006-01-23 07:54:51 51°14.611 2°54.742 -999 79 0.1 103710 80
2006-01-23 07:54:57 51°14.63 2°54.725 -999 71 0.2 103750 80
2006-01-23 07:55:01 51°14.643 2°54.714 -999 57 0.2 103750 80
2006-01-23 07:55:05 51°14.656 2°54.702 -999 64 0.2 103700 80
2006-01-23 07:55:12 51°14.679 2°54.683 -999 79 0.2 103700 80
2006-01-23 07:55:16 51°14.692 2°54.671 -999 65 0.1 103710 81
2006-01-23 07:55:21 51°14.708 2°54.657 -999 73 0.1 103710 81
2006-01-23 07:55:25 51°14.721 2°54.645 -999 74 0.1 103700 81
2006-01-23 07:55:32 51°14.744 2°54.624 -999 77 0.1 103700 81
2006-01-23 07:55:36 51°14.756 2°54.612 -999 78 0.2 103710 81
2006-01-23 07:55:41 51°14.772 2°54.596 -999 87 0.2 103710 81
2006-01-23 07:55:45 51°14.784 2°54.584 -999 87 0.2 103700 81
2006-01-23 07:55:52 51°14.807 2°54.563 -999 91 0.2 103700 81
2006-01-23 07:55:56 51°14.82 2°54.551 -999 91 0.2 103700 81
2006-01-23 07:56:01 51°14.836 2°54.537 -999 88 0.2 103700 81
2006-01-23 07:56:05 51°14.849 2°54.526 -999 90 0.2 103700 81
2006-01-23 07:56:11 51°14.869 2°54.509 -999 99 0.2 103700 81
2006-01-23 07:56:16 51°14.885 2°54.495 -999 106 0.2 103700 81
2006-01-23 07:56:21 51°14.901 2°54.481 -999 104 0.2 103700 81
2006-01-23 07:56:26 51°14.918 2°54.467 -999 103 0.2 103700 81
2006-01-23 07:56:32 51°14.938 2°54.45 -999 107 0.2 103700 81
2006-01-23 07:56:36 51°14.951 2°54.438 -999 109 0.1 103700 81
2006-01-23 07:56:41 51°14.967 2°54.424 -999 101 0.1 103700 81
2006-01-23 07:56:45 51°14.98 2°54.412 -999 97 0.1 103710 80
2006-01-23 07:56:52 51°15.002 2°54.392 -999 101 0.1 103710 80
2006-01-23 07:56:56 51°15.015 2°54.38 -999 95 0.1 103710 80
2006-01-23 07:57:01 51°15.03 2°54.365 -999 89 0.1 103710 80
2006-01-23 07:57:07 51°15.05 2°54.347 -999 70 0.1 103710 80
2006-01-23 07:57:11 51°15.063 2°54.336 -999 70 0.1 103710 80
2006-01-23 07:57:17 51°15.082 2°54.318 -999 74 0.1 103710 80
2006-01-23 07:57:21 51°15.095 2°54.306 -999 81 0.1 103710 80
2006-01-23 07:57:27 51°15.114 2°54.289 -999 81 0.1 103710 81
2006-01-23 07:57:32 51°15.131 2°54.275 -999 77 0.1 103710 81
2006-01-23 07:57:36 51°15.144 2°54.264 -999 76 0.2 103710 81
2006-01-23 07:57:41 51°15.16 2°54.249 -999 64 0.2 103710 81
2006-01-23 07:57:47 51°15.18 2°54.232 -999 78 0.1 103710 81
2006-01-23 07:57:52 51°15.196 2°54.217 -999 66 0.1 103710 81
2006-01-23 07:57:57 51°15.212 2°54.203 -999 83 0.1 103710 81
2006-01-23 07:58:01 51°15.225 2°54.191 -999 79 0.1 103710 81
2006-01-23 07:58:07 51°15.244 2°54.173 -999 83 0.2 103710 82
2006-01-23 07:58:12 51°15.26 2°54.158 -999 68 0.2 103710 82
2006-01-23 07:58:16 51°15.273 2°54.146 -999 65 0.2 103710 82
2006-01-23 07:58:21 51°15.289 2°54.132 -999 77 0.2 103710 82
2006-01-23 07:58:27 51°15.308 2°54.113 -999 62 0.2 103700 82
2006-01-23 07:58:32 51°15.324 2°54.099 -999 79 0.2 103700 82
2006-01-23 07:58:37 51°15.341 2°54.084 -999 85 0.2 103710 82
2006-01-23 07:58:41 51°15.354 2°54.072 -999 88 0.2 103710 82
2006-01-23 07:58:47 51°15.374 2°54.054 -999 88 0.2 103710 82
2006-01-23 07:58:52 51°15.39 2°54.039 -999 81 0.2 103710 82
2006-01-23 07:58:57 51°15.406 2°54.025 -999 82 0.3 103700 82
2006-01-23 07:59:01 51°15.419 2°54.013 -999 80 0.3 103700 82
2006-01-23 07:59:05 51°15.432 2°54.001 -999 80 0.2 103700 82
2006-01-23 07:59:12 51°15.455 2°53.98 -999 81 0.2 103700 82
2006-01-23 07:59:17 51°15.472 2°53.965 -999 90 0.2 103700 81
2006-01-23 07:59:21 51°15.485 2°53.953 -999 101 0.2 103700 81
2006-01-23 07:59:25 51°15.497 2°53.941 -999 94 0.2 103710 81
2006-01-23 07:59:31 51°15.517 2°53.924 -999 82 0.2 103710 81
2006-01-23 07:59:37 51°15.536 2°53.906 -999 79 0.2 103730 81
2006-01-23 07:59:41 51°15.549 2°53.895 -999 85 0.2 103730 81
2006-01-23 07:59:45 51°15.562 2°53.883 -999 95 0.2 103710 81
2006-01-23 07:59:52 51°15.585 2°53.862 -999 85 0.2 103710 81
2006-01-23 07:59:56 51°15.599 2°53.85 -999 80 0.2 103710 81
2006-01-23 08:00:02 51°15.619 2°53.832 -999 78 0.2 103710 81
2006-01-23 08:00:05 51°15.629 2°53.824 -999 92 0.2 103710 81
2006-01-23 08:00:12 51°15.651 2°53.803 -999 78 0.2 103710 81
2006-01-23 08:00:16 51°15.664 2°53.791 -999 97 0.2 103700 81
2006-01-23 08:00:21 51°15.68 2°53.776 -999 91 0.2 103700 81
2006-01-23 08:00:25 51°15.693 2°53.764 -999 102 0.2 103710 81
2006-01-23 08:00:32 51°15.716 2°53.743 -999 108 0.2 103710 81
2006-01-23 08:00:37 51°15.732 2°53.728 -999 109 0.2 103710 81
2006-01-23 08:00:41 51°15.746 2°53.716 -999 99 0.2 103710 81
2006-01-23 08:00:45 51°15.759 2°53.705 -999 98 0.2 103710 81
2006-01-23 08:00:52 51°15.782 2°53.684 -999 100 0.2 103710 81
2006-01-23 08:00:57 51°15.799 2°53.67 -999 100 0.2 103710 81
2006-01-23 08:01:01 51°15.812 2°53.658 -999 108 0.2 103710 81
2006-01-23 08:01:05 51°15.825 2°53.646 -999 110 0.1 103710 80
2006-01-23 08:01:12 51°15.848 2°53.625 -999 118 0.1 103710 80
2006-01-23 08:01:17 51°15.864 2°53.61 -999 123 0.1 103740 80
2006-01-23 08:01:21 51°15.877 2°53.598 -999 117 0.1 103740 80
2006-01-23 08:01:25 51°15.89 2°53.585 -999 122 0.1 103710 80
2006-01-23 08:01:32 51°15.913 2°53.565 -999 112 0.1 103710 80
2006-01-23 08:01:37 51°15.929 2°53.55 -999 115 0.1 103710 80
2006-01-23 08:01:41 51°15.942 2°53.538 -999 110 0.1 103710 80
2006-01-23 08:01:47 51°15.962 2°53.52 -999 106 0.1 103710 80
2006-01-23 08:01:52 51°15.978 2°53.506 -999 105 0.1 103710 80
2006-01-23 08:01:57 51°15.995 2°53.491 -999 122 0.1 103710 80
2006-01-23 08:02:01 51°16.008 2°53.479 -999 108 0.1 103710 80
2006-01-23 08:02:07 51°16.028 2°53.462 -999 59 0.2 103720 80
2006-01-23 08:02:12 51°16.044 2°53.447 -999 78 0.2 103720 80
2006-01-23 08:02:16 51°16.057 2°53.436 -999 65 0.1 103710 80
2006-01-23 08:02:21 51°16.074 2°53.421 -999 65 0.1 103710 80
2006-01-23 08:02:25 51°16.087 2°53.409 -999 74 0.1 103710 81
2006-01-23 08:02:32 51°16.11 2°53.389 -999 69 0.1 103710 81
2006-01-23 08:02:36 51°16.123 2°53.377 -999 60 0.2 103710 81
2006-01-23 08:02:41 51°16.139 2°53.362 -999 59 0.2 103710 81
2006-01-23 08:02:45 51°16.152 2°53.35 -999 72 0.2 103710 81
2006-01-23 08:02:51 51°16.172 2°53.332 -999 72 0.2 103710 81
2006-01-23 08:02:56 51°16.188 2°53.318 -999 69 0.2 103710 81
2006-01-23 08:03:01 51°16.204 2°53.303 -999 86 0.2 103710 81
2006-01-23 08:03:07 51°16.224 2°53.285 -999 83 0.2 103710 82
2006-01-23 08:03:12 51°16.24 2°53.271 -999 86 0.2 103710 82
2006-01-23 08:03:16 51°16.254 2°53.259 -999 80 0.2 103710 81
2006-01-23 08:03:21 51°16.27 2°53.246 -999 52 0.2 103710 81
2006-01-23 08:03:25 51°16.284 2°53.235 -999 61 0.2 103700 81
2006-01-23 08:03:32 51°16.307 2°53.215 -999 54 0.2 103700 81
2006-01-23 08:03:36 51°16.32 2°53.204 -999 54 0.2 103710 81
2006-01-23 08:03:41 51°16.337 2°53.19 -999 60 0.2 103710 81
2006-01-23 08:03:45 51°16.35 2°53.18 -999 64 0.2 103710 82
2006-01-23 08:03:52 51°16.374 2°53.16 -999 62 0.2 103710 82
2006-01-23 08:03:56 51°16.387 2°53.15 -999 73 0.3 103710 82
2006-01-23 08:04:01 51°16.404 2°53.137 -999 69 0.3 103710 82
2006-01-23 08:04:05 51°16.417 2°53.126 -999 78 0.3 103710 82
2006-01-23 08:04:11 51°16.437 2°53.11 -999 66 0.3 103710 82
2006-01-23 08:04:17 51°16.457 2°53.094 -999 88 0.2 103710 82
2006-01-23 08:04:22 51°16.474 2°53.079 -999 79 0.2 103710 82
2006-01-23 08:04:27 51°16.491 2°53.066 -999 73 0.2 103710 82
2006-01-23 08:04:32 51°16.507 2°53.052 -999 75 0.2 103710 82
2006-01-23 08:04:37 51°16.524 2°53.038 -999 68 0.2 103700 82
2006-01-23 08:04:42 51°16.541 2°53.025 -999 66 0.2 103700 82
2006-01-23 08:04:46 51°16.554 2°53.013 -999 76 0.2 103710 82
2006-01-23 08:04:52 51°16.574 2°52.998 -999 79 0.2 103710 82
2006-01-23 08:04:56 51°16.587 2°52.987 -999 76 0.2 103710 82
2006-01-23 08:05:01 51°16.604 2°52.973 -999 81 0.2 103710 82
2006-01-23 08:05:07 51°16.625 2°52.958 -999 80 0.2 103710 82
2006-01-23 08:05:12 51°16.641 2°52.944 -999 87 0.2 103710 82
2006-01-23 08:05:17 51°16.658 2°52.931 -999 82 0.2 103710 82
2006-01-23 08:05:21 51°16.672 2°52.92 -999 86 0.2 103710 82
2006-01-23 08:05:27 51°16.692 2°52.903 -999 78 0.2 103710 82
2006-01-23 08:05:32 51°16.709 2°52.89 -999 74 0.2 103710 82
2006-01-23 08:05:37 51°16.725 2°52.876 -999 76 0.2 103710 82
2006-01-23 08:05:42 51°16.742 2°52.863 -999 80 0.2 103710 82
2006-01-23 08:05:46 51°16.755 2°52.851 -999 80 0.2 103710 82
2006-01-23 08:05:52 51°16.775 2°52.835 -999 81 0.2 103710 82
2006-01-23 08:05:57 51°16.792 2°52.821 -999 87 0.2 103710 81
2006-01-23 08:06:01 51°16.805 2°52.811 -999 82 0.2 103710 81
2006-01-23 08:06:05 51°16.818 2°52.8 -999 82 0.2 103710 81
2006-01-23 08:06:12 51°16.842 2°52.781 -999 80 0.2 103710 81
2006-01-23 08:06:16 51°16.855 2°52.77 -999 79 0.1 103710 81
2006-01-23 08:06:21 51°16.871 2°52.756 -999 78 0.1 103710 81
2006-01-23 08:06:26 51°16.887 2°52.741 -999 78 0.2 103710 81
2006-01-23 08:06:32 51°16.907 2°52.723 -999 77 0.2 103710 81
2006-01-23 08:06:37 51°16.923 2°52.708 -999 76 0.1 103710 81
2006-01-23 08:06:41 51°16.936 2°52.695 -999 71 0.1 103710 81
2006-01-23 08:06:45 51°16.949 2°52.683 -999 76 0.1 103710 80
2006-01-23 08:06:51 51°16.968 2°52.665 -999 77 0.1 103710 80
2006-01-23 08:06:56 51°16.985 2°52.651 -999 69 0.1 103710 80
2006-01-23 08:07:02 51°17.005 2°52.633 -999 78 0.1 103710 80
2006-01-23 08:07:05 51°17.015 2°52.624 -999 81 0.1 103710 80
2006-01-23 08:07:12 51°17.038 2°52.603 -999 75 0.1 103710 80
2006-01-23 08:07:16 51°17.051 2°52.592 -999 66 0.1 103710 80
2006-01-23 08:07:21 51°17.067 2°52.577 -999 86 0.1 103710 80
2006-01-23 08:07:27 51°17.087 2°52.559 -999 88 0.1 103710 80
2006-01-23 08:07:32 51°17.103 2°52.544 -999 69 0.1 103710 80
2006-01-23 08:07:37 51°17.12 2°52.529 -999 85 0.1 103710 80
2006-01-23 08:07:42 51°17.136 2°52.514 -999 90 0.1 103710 80
2006-01-23 08:07:47 51°17.152 2°52.498 -999 81 0.1 103710 81
2006-01-23 08:07:52 51°17.168 2°52.483 -999 78 0.1 103710 81
2006-01-23 08:07:57 51°17.184 2°52.467 -999 84 0.1 103710 80
2006-01-23 08:08:01 51°17.197 2°52.455 -999 86 0.1 103710 80
2006-01-23 08:08:05 51°17.21 2°52.442 -999 75 0.1 103710 80
2006-01-23 08:08:12 51°17.233 2°52.42 -999 89 0.1 103710 80
2006-01-23 08:08:17 51°17.249 2°52.404 -999 88 0.1 103710 80
2006-01-23 08:08:21 51°17.262 2°52.391 -999 76 0.1 103710 80
2006-01-23 08:08:27 51°17.281 2°52.371 -999 86 0.1 103710 80
2006-01-23 08:08:32 51°17.296 2°52.355 -999 90 0.1 103710 80
2006-01-23 08:08:37 51°17.312 2°52.338 -999 94 0.1 103710 80
2006-01-23 08:08:41 51°17.325 2°52.325 -999 93 0.1 103710 80
2006-01-23 08:08:46 51°17.341 2°52.308 -999 95 0.1 103710 80
2006-01-23 08:08:52 51°17.359 2°52.287 -999 91 0.1 103710 80
2006-01-23 08:08:57 51°17.374 2°52.269 -999 88 0.1 103710 80
2006-01-23 08:09:02 51°17.388 2°52.25 -999 94 0.1 103710 80
2006-01-23 08:09:07 51°17.403 2°52.23 -999 90 0.1 103710 80
2006-01-23 08:09:12 51°17.416 2°52.209 -999 41 0.1 103710 80
2006-01-23 08:09:17 51°17.429 2°52.189 -999 36 0.1 103710 80
2006-01-23 08:09:21 51°17.439 2°52.171 -999 24 0.1 103710 80
2006-01-23 08:09:25 51°17.449 2°52.154 -999 21 0.1 103710 80
2006-01-23 08:09:32 51°17.466 2°52.122 -999 342 0.1 103710 80
2006-01-23 08:09:36 51°17.476 2°52.103 -999 323 0.1 103710 80
2006-01-23 08:09:41 51°17.487 2°52.079 -999 296 0.1 103710 80
2006-01-23 08:09:47 51°17.499 2°52.049 -999 292 0.1 103710 80
2006-01-23 08:09:52 51°17.51 2°52.025 -999 289 0.1 103710 80
2006-01-23 08:09:56 51°17.518 2°52.005 -999 289 0.1 103710 80
2006-01-23 08:10:01 51°17.528 2°51.98 -999 295 0.1 103710 80
2006-01-23 08:10:07 51°17.54 2°51.95 -999 330 0.1 103710 80
2006-01-23 08:10:12 51°17.55 2°51.924 -999 335 0.1 103710 80
2006-01-23 08:10:16 51°17.558 2°51.904 -999 43 0.1 103710 80
2006-01-23 08:10:21 51°17.567 2°51.878 -999 300 0.1 103710 80
2006-01-23 08:10:27 51°17.578 2°51.848 -999 308 0.1 103710 80
2006-01-23 08:10:32 51°17.588 2°51.822 -999 303 0.1 103710 80
2006-01-23 08:10:37 51°17.597 2°51.796 -999 310 0.1 103720 80
2006-01-23 08:10:41 51°17.605 2°51.776 -999 307 0.1 103720 80
2006-01-23 08:10:47 51°17.616 2°51.743 -999 312 0.1 103710 80
2006-01-23 08:10:52 51°17.625 2°51.717 -999 310 0.1 103710 80
2006-01-23 08:10:57 51°17.633 2°51.691 -999 308 0.1 103710 80
2006-01-23 08:11:01 51°17.64 2°51.67 -999 228 0.1 103710 80
2006-01-23 08:11:07 51°17.65 2°51.638 -999 317 0.1 103710 80
2006-01-23 08:11:12 51°17.658 2°51.612 -999 315 0.1 103710 80
2006-01-23 08:11:17 51°17.667 2°51.586 -999 318 0.1 103710 80
2006-01-23 08:11:22 51°17.676 2°51.56 -999 43 0.1 103710 80
2006-01-23 08:11:27 51°17.684 2°51.533 -999 227 0.1 103710 80
2006-01-23 08:11:32 51°17.693 2°51.507 -999 314 0.1 103710 80
2006-01-23 08:11:36 51°17.7 2°51.486 -999 228 0.1 103740 79
2006-01-23 08:11:41 51°17.708 2°51.46 -999 43 0.1 103740 79
2006-01-23 08:11:47 51°17.719 2°51.428 -999 319 0.1 103720 79
2006-01-23 08:11:51 51°17.726 2°51.407 -999 328 0.1 103720 79
2006-01-23 08:11:56 51°17.735 2°51.38 -999 43 0.1 103720 80
2006-01-23 08:12:01 51°17.744 2°51.354 -999 327 0.1 103720 80
2006-01-23 08:12:07 51°17.754 2°51.323 -999 323 0.1 103710 79
2006-01-23 08:12:12 51°17.763 2°51.296 -999 323 0.1 103710 79
2006-01-23 08:12:17 51°17.772 2°51.27 -999 327 0.1 103720 79
2006-01-23 08:12:22 51°17.781 2°51.244 -999 321 0.1 103720 79
2006-01-23 08:12:27 51°17.79 2°51.217 -999 318 0.1 103720 79
2006-01-23 08:12:32 51°17.798 2°51.191 -999 320 0.1 103720 79
2006-01-23 08:12:37 51°17.807 2°51.164 -999 229 0.1 103720 79
2006-01-23 08:12:41 51°17.814 2°51.143 -999 228 0.1 103720 79
2006-01-23 08:12:45 51°17.821 2°51.122 -999 321 -999 103750 79
2006-01-23 08:12:52 51°17.833 2°51.084 -999 315 -999 103750 79
2006-01-23 08:12:57 51°17.841 2°51.058 -999 320 0.1 103720 79
2006-01-23 08:13:01 51°17.847 2°51.036 -999 325 0.1 103720 79
2006-01-23 08:13:07 51°17.857 2°51.004 -999 323 0.1 103720 79
2006-01-23 08:13:11 51°17.864 2°50.983 -999 322 0.1 103720 79
2006-01-23 08:13:17 51°17.874 2°50.951 -999 303 -999 103720 79
2006-01-23 08:13:21 51°17.882 2°50.93 -999 307 -999 103720 79
2006-01-23 08:13:25 51°17.889 2°50.909 -999 296 0.1 103720 79
2006-01-23 08:13:31 51°17.899 2°50.878 -999 283 0.1 103720 79
2006-01-23 08:13:36 51°17.907 2°50.851 -999 288 0.1 103720 79
2006-01-23 08:13:42 51°17.917 2°50.819 -999 289 0.1 103720 79
2006-01-23 08:13:47 51°17.925 2°50.793 -999 281 0.1 103730 79
2006-01-23 08:13:52 51°17.934 2°50.766 -999 281 0.1 103730 79
2006-01-23 08:13:56 51°17.94 2°50.745 -999 256 0.1 103720 79
2006-01-23 08:14:01 51°17.948 2°50.719 -999 279 0.1 103720 79
2006-01-23 08:14:05 51°17.955 2°50.697 -999 328 0.1 103720 79
2006-01-23 08:14:11 51°17.965 2°50.665 -999 350 0.1 103720 79
2006-01-23 08:14:16 51°17.972 2°50.639 -999 334 0.1 103720 79
2006-01-23 08:14:21 51°17.981 2°50.612 -999 40 0.1 103720 79
2006-01-23 08:14:25 51°17.987 2°50.59 -999 313 0.1 103720 79
2006-01-23 08:14:32 51°17.998 2°50.553 -999 302 0.1 103720 79
2006-01-23 08:14:36 51°18.005 2°50.531 -999 299 0.1 103720 80
2006-01-23 08:14:41 51°18.012 2°50.504 -999 319 0.1 103720 80
2006-01-23 08:14:46 51°18.021 2°50.477 -999 317 0.1 103720 80
2006-01-23 08:14:52 51°18.03 2°50.445 -999 328 0.1 103720 80
2006-01-23 08:14:57 51°18.038 2°50.418 -999 310 0.1 103720 80
2006-01-23 08:15:01 51°18.045 2°50.397 -999 304 0.1 103720 80
2006-01-23 08:15:05 51°18.051 2°50.376 -999 300 0.1 103720 80
2006-01-23 08:15:12 51°18.062 2°50.338 -999 312 0.1 103720 80
2006-01-23 08:15:17 51°18.07 2°50.311 -999 320 0.1 103720 80
2006-01-23 08:15:22 51°18.078 2°50.284 -999 311 0.1 103720 80
2006-01-23 08:15:27 51°18.086 2°50.257 -999 295 0.1 103720 80
2006-01-23 08:15:31 51°18.092 2°50.235 -999 290 0.1 103720 80
2006-01-23 08:15:37 51°18.101 2°50.203 -999 296 0.1 103720 80
2006-01-23 08:15:41 51°18.107 2°50.181 -999 288 0.1 103720 80
2006-01-23 08:15:45 51°18.113 2°50.16 -999 298 0.1 103720 80
2006-01-23 08:15:51 51°18.122 2°50.127 -999 301 0.1 103720 80
2006-01-23 08:15:56 51°18.129 2°50.1 -999 297 0.1 103720 80
2006-01-23 08:16:02 51°18.138 2°50.067 -999 301 0.1 103720 80
2006-01-23 08:16:07 51°18.146 2°50.04 -999 307 0.1 103720 80
2006-01-23 08:16:12 51°18.153 2°50.013 -999 311 0.1 103720 80
2006-01-23 08:16:16 51°18.159 2°49.992 -999 305 0.1 103720 80
2006-01-23 08:16:21 51°18.167 2°49.965 -999 336 0.1 103720 80
2006-01-23 08:16:26 51°18.175 2°49.938 -999 329 0.1 103720 80
2006-01-23 08:16:32 51°18.184 2°49.906 -999 337 0.1 103720 80
2006-01-23 08:16:37 51°18.192 2°49.879 -999 345 0.1 103720 80
2006-01-23 08:16:41 51°18.198 2°49.857 -999 335 0.1 103720 80
2006-01-23 08:16:46 51°18.205 2°49.83 -999 330 0.1 103720 80
2006-01-23 08:16:52 51°18.215 2°49.798 -999 328 0.1 103720 80
2006-01-23 08:16:57 51°18.222 2°49.77 -999 327 0.1 103720 80
2006-01-23 08:17:01 51°18.228 2°49.749 -999 321 0.1 103720 80
2006-01-23 08:17:06 51°18.235 2°49.722 -999 331 0.1 103730 80
2006-01-23 08:17:12 51°18.244 2°49.689 -999 290 0.1 103730 80
2006-01-23 08:17:17 51°18.252 2°49.662 -999 289 0.1 103730 80
2006-01-23 08:17:21 51°18.258 2°49.641 -999 289 0.1 103730 80
2006-01-23 08:17:26 51°18.266 2°49.614 -999 290 0.1 103720 80
2006-01-23 08:17:31 51°18.273 2°49.587 -999 293 0.1 103720 80
2006-01-23 08:17:36 51°18.281 2°49.56 -999 289 0.1 103710 80
2006-01-23 08:17:41 51°18.288 2°49.532 -999 286 0.1 103710 80
2006-01-23 08:17:46 51°18.295 2°49.505 -999 300 0.1 103710 80
2006-01-23 08:17:51 51°18.303 2°49.478 -999 227 0.1 103710 80
2006-01-23 08:17:57 51°18.312 2°49.445 -999 309 0.1 103710 80
2006-01-23 08:18:01 51°18.319 2°49.423 -999 314 0.1 103710 80
2006-01-23 08:18:05 51°18.325 2°49.402 -999 228 0.1 103710 80
2006-01-23 08:18:11 51°18.334 2°49.369 -999 43 0.1 103710 80
2006-01-23 08:18:16 51°18.343 2°49.343 -999 318 0.1 103720 80
2006-01-23 08:18:22 51°18.351 2°49.31 -999 43 0.1 103720 80
2006-01-23 08:18:27 51°18.358 2°49.283 -999 317 0.1 103720 80
2006-01-23 08:18:32 51°18.366 2°49.256 -999 319 0.1 103720 80
2006-01-23 08:18:36 51°18.371 2°49.234 -999 327 0.1 103720 80
2006-01-23 08:18:41 51°18.379 2°49.207 -999 346 0.1 103720 80
2006-01-23 08:18:45 51°18.385 2°49.185 -999 337 0.1 103720 79
2006-01-23 08:18:52 51°18.396 2°49.148 -999 332 0.1 103720 79
2006-01-23 08:18:57 51°18.403 2°49.121 -999 312 0.1 103710 79
2006-01-23 08:19:01 51°18.408 2°49.099 -999 315 0.1 103710 79
2006-01-23 08:19:07 51°18.417 2°49.067 -999 325 0.1 103720 79
2006-01-23 08:19:12 51°18.425 2°49.04 -999 322 0.1 103720 79
2006-01-23 08:19:17 51°18.434 2°49.013 -999 317 0.1 103720 79
2006-01-23 08:19:21 51°18.441 2°48.99 -999 327 0.1 103720 79
2006-01-23 08:19:26 51°18.449 2°48.963 -999 328 0.1 103720 79
2006-01-23 08:19:32 51°18.458 2°48.93 -999 326 0.1 103720 79
2006-01-23 08:19:37 51°18.466 2°48.903 -999 342 0.1 103720 79
2006-01-23 08:19:41 51°18.472 2°48.881 -999 333 0.1 103720 79
2006-01-23 08:19:47 51°18.481 2°48.848 -999 320 0.1 103710 79
2006-01-23 08:19:52 51°18.489 2°48.821 -999 313 0.1 103710 79
2006-01-23 08:19:57 51°18.496 2°48.793 -999 43 0.1 103710 79
2006-01-23 08:20:02 51°18.504 2°48.765 -999 319 0.1 103710 79
2006-01-23 08:20:06 51°18.51 2°48.744 -999 318 0.1 103710 79
2006-01-23 08:20:12 51°18.519 2°48.711 -999 313 0.1 103710 79
2006-01-23 08:20:16 51°18.526 2°48.69 -999 326 0.1 103710 79
2006-01-23 08:20:21 51°18.533 2°48.662 -999 345 0.1 103710 79
2006-01-23 08:20:25 51°18.54 2°48.64 -999 333 0.1 103720 79
2006-01-23 08:20:32 51°18.551 2°48.603 -999 321 0.1 103720 79
2006-01-23 08:20:36 51°18.556 2°48.581 -999 42 0.1 103720 79
2006-01-23 08:20:41 51°18.564 2°48.554 -999 312 0.1 103720 79
2006-01-23 08:20:45 51°18.57 2°48.531 -999 296 0.1 103710 79
2006-01-23 08:20:51 51°18.58 2°48.5 -999 308 0.1 103710 79
2006-01-23 08:20:56 51°18.587 2°48.471 -999 317 0.1 103720 79
2006-01-23 08:21:01 51°18.595 2°48.444 -999 304 0.1 103720 79
2006-01-23 08:21:05 51°18.601 2°48.423 -999 309 0.1 103720 79
2006-01-23 08:21:12 51°18.611 2°48.384 -999 308 0.1 103720 79
2006-01-23 08:21:16 51°18.618 2°48.362 -999 302 -999 103720 79
2006-01-23 08:21:21 51°18.625 2°48.335 -999 306 -999 103720 79
2006-01-23 08:21:25 51°18.631 2°48.313 -999 304 0.1 103710 79
2006-01-23 08:21:32 51°18.642 2°48.275 -999 313 0.1 103710 79
2006-01-23 08:21:36 51°18.648 2°48.253 -999 302 0.1 103720 79
2006-01-23 08:21:41 51°18.656 2°48.226 -999 306 0.1 103720 79
2006-01-23 08:21:47 51°18.665 2°48.193 -999 300 0.1 103720 79
2006-01-23 08:21:52 51°18.673 2°48.166 -999 301 0.1 103720 79
2006-01-23 08:21:57 51°18.681 2°48.139 -999 287 0.1 103720 79
2006-01-23 08:22:01 51°18.687 2°48.117 -999 288 0.1 103720 79
2006-01-23 08:22:06 51°18.695 2°48.09 -999 289 0.1 103710 79
2006-01-23 08:22:11 51°18.702 2°48.062 -999 297 0.1 103710 79
2006-01-23 08:22:17 51°18.712 2°48.029 -999 290 0.1 103720 79
2006-01-23 08:22:21 51°18.718 2°48.007 -999 290 0.1 103720 79
2006-01-23 08:22:26 51°18.725 2°47.98 -999 294 0.1 103710 79
2006-01-23 08:22:31 51°18.733 2°47.953 -999 289 0.1 103710 79
2006-01-23 08:22:37 51°18.743 2°47.92 -999 303 -999 103720 79
2006-01-23 08:22:41 51°18.75 2°47.899 -999 281 -999 103720 79
2006-01-23 08:22:45 51°18.756 2°47.877 -999 279 -999 103710 79
2006-01-23 08:22:52 51°18.767 2°47.839 -999 279 -999 103710 79
2006-01-23 08:22:56 51°18.773 2°47.818 -999 290 0.1 103720 79
2006-01-23 08:23:01 51°18.782 2°47.791 -999 268 0.1 103720 79
2006-01-23 08:23:07 51°18.792 2°47.759 -999 266 0.1 103720 79
2006-01-23 08:23:12 51°18.799 2°47.732 -999 275 0.1 103720 79
2006-01-23 08:23:16 51°18.806 2°47.711 -999 273 0.1 103720 79
2006-01-23 08:23:21 51°18.814 2°47.684 -999 273 0.1 103720 79
2006-01-23 08:23:27 51°18.823 2°47.652 -999 259 0.1 103750 79
2006-01-23 08:23:32 51°18.831 2°47.625 -999 260 0.1 103750 79
2006-01-23 08:23:36 51°18.838 2°47.604 -999 266 0.1 103720 79
2006-01-23 08:23:41 51°18.845 2°47.577 -999 269 0.1 103720 79
2006-01-23 08:23:47 51°18.854 2°47.545 -999 287 0.1 103720 79
2006-01-23 08:23:52 51°18.861 2°47.519 -999 306 0.1 103720 79
2006-01-23 08:23:57 51°18.869 2°47.492 -999 290 0.1 103720 79
2006-01-23 08:24:01 51°18.875 2°47.471 -999 276 0.1 103720 79
2006-01-23 08:24:06 51°18.884 2°47.444 -999 242 0.1 103720 79
2006-01-23 08:24:12 51°18.893 2°47.412 -999 250 0.1 103720 79
2006-01-23 08:24:17 51°18.901 2°47.385 -999 256 0.1 103710 79
2006-01-23 08:24:21 51°18.906 2°47.364 -999 273 0.1 103710 79
2006-01-23 08:24:26 51°18.914 2°47.337 -999 266 0.1 103720 79
2006-01-23 08:24:32 51°18.922 2°47.305 -999 264 0.1 103720 79
2006-01-23 08:24:37 51°18.93 2°47.277 -999 264 0.1 103720 79
2006-01-23 08:24:41 51°18.937 2°47.256 -999 259 0.1 103720 79
2006-01-23 08:24:45 51°18.944 2°47.234 -999 258 0.1 103720 79
2006-01-23 08:24:51 51°18.954 2°47.203 -999 250 0.1 103720 79
2006-01-23 08:24:57 51°18.963 2°47.17 -999 250 0.1 103720 79
2006-01-23 08:25:02 51°18.97 2°47.143 -999 250 0.1 103720 79
2006-01-23 08:25:07 51°18.978 2°47.116 -999 257 0.1 103720 80
2006-01-23 08:25:12 51°18.986 2°47.09 -999 255 0.1 103720 80
2006-01-23 08:25:16 51°18.992 2°47.068 -999 254 0.1 103720 80
2006-01-23 08:25:21 51°19.001 2°47.04 -999 249 0.1 103720 80
2006-01-23 08:25:27 51°19.01 2°47.008 -999 250 0.1 103720 80
2006-01-23 08:25:31 51°19.017 2°46.987 -999 246 0.1 103720 80
2006-01-23 08:25:36 51°19.024 2°46.96 -999 246 0.1 103720 80
2006-01-23 08:25:41 51°19.032 2°46.933 -999 243 0.1 103720 80
2006-01-23 08:25:45 51°19.039 2°46.911 -999 241 0.2 103720 80
2006-01-23 08:25:52 51°19.05 2°46.874 -999 240 0.2 103720 80
2006-01-23 08:25:56 51°19.056 2°46.852 -999 240 0.1 103720 80
2006-01-23 08:26:01 51°19.063 2°46.825 -999 233 0.1 103720 80
2006-01-23 08:26:07 51°19.072 2°46.793 -999 230 0.2 103720 80
2006-01-23 08:26:12 51°19.081 2°46.767 -999 230 0.2 103720 80
2006-01-23 08:26:16 51°19.087 2°46.745 -999 230 0.2 103720 80
2006-01-23 08:26:21 51°19.095 2°46.718 -999 230 0.2 103720 80
2006-01-23 08:26:25 51°19.101 2°46.696 -999 230 0.2 103720 80
2006-01-23 08:26:31 51°19.111 2°46.664 -999 230 0.2 103720 80
2006-01-23 08:26:37 51°19.12 2°46.631 -999 230 0.2 103710 80
2006-01-23 08:26:41 51°19.126 2°46.61 -999 229 0.2 103710 80
2006-01-23 08:26:46 51°19.134 2°46.583 -999 229 0.2 103720 80
2006-01-23 08:26:52 51°19.143 2°46.55 -999 222 0.2 103720 80
2006-01-23 08:26:57 51°19.151 2°46.524 -999 221 0.2 103720 80
2006-01-23 08:27:01 51°19.157 2°46.502 -999 224 0.2 103720 80
2006-01-23 08:27:05 51°19.164 2°46.481 -999 214 0.2 103720 79
2006-01-23 08:27:11 51°19.173 2°46.448 -999 227 0.2 103720 79
2006-01-23 08:27:16 51°19.181 2°46.422 -999 167 0.1 103720 79
2006-01-23 08:27:21 51°19.189 2°46.395 -999 118 0.1 103720 79
2006-01-23 08:27:25 51°19.195 2°46.374 -999 97 0.1 103720 79
2006-01-23 08:27:31 51°19.205 2°46.341 -999 82 0.1 103720 79
2006-01-23 08:27:36 51°19.212 2°46.314 -999 74 0.1 103720 79
2006-01-23 08:27:41 51°19.22 2°46.287 -999 64 0.1 103720 79
2006-01-23 08:27:45 51°19.225 2°46.266 -999 25 0.1 103720 79
2006-01-23 08:27:51 51°19.234 2°46.233 -999 59 0.1 103720 79
2006-01-23 08:27:56 51°19.24 2°46.206 -999 59 0.1 103720 79
2006-01-23 08:28:01 51°19.248 2°46.179 -999 59 0.1 103720 79
2006-01-23 08:28:06 51°19.254 2°46.151 -999 59 0.1 103720 79
2006-01-23 08:28:11 51°19.261 2°46.124 -999 45 0.1 103720 79
2006-01-23 08:28:16 51°19.268 2°46.097 -999 55 0.1 103720 79
2006-01-23 08:28:21 51°19.275 2°46.07 -999 53 0.1 103720 79
2006-01-23 08:28:25 51°19.281 2°46.049 -999 53 0.1 103750 79
2006-01-23 08:28:31 51°19.289 2°46.016 -999 53 0.1 103750 79
2006-01-23 08:28:36 51°19.297 2°45.989 -999 54 0.1 103720 79
2006-01-23 08:28:41 51°19.303 2°45.962 -999 55 0.1 103720 79
2006-01-23 08:28:45 51°19.309 2°45.94 -999 64 0.1 103720 79
2006-01-23 08:28:52 51°19.319 2°45.902 -999 29 0.1 103720 79
2006-01-23 08:28:56 51°19.325 2°45.881 -999 61 0.1 103760 79
2006-01-23 08:29:01 51°19.332 2°45.853 -999 50 0.1 103760 79
2006-01-23 08:29:05 51°19.337 2°45.832 -999 61 0.1 103730 79
2006-01-23 08:29:12 51°19.347 2°45.794 -999 64 0.1 103730 79
2006-01-23 08:29:16 51°19.353 2°45.772 -999 72 0.1 103720 79
2006-01-23 08:29:21 51°19.36 2°45.745 -999 62 0.1 103720 79
2006-01-23 08:29:26 51°19.368 2°45.718 -999 67 0.1 103720 79
2006-01-23 08:29:31 51°19.375 2°45.691 -999 94 0.1 103720 79
2006-01-23 08:29:37 51°19.384 2°45.659 -999 99 0.1 103720 79
2006-01-23 08:29:41 51°19.389 2°45.637 -999 106 0.1 103720 79
2006-01-23 08:29:45 51°19.396 2°45.615 -999 107 0.1 103720 79
2006-01-23 08:29:51 51°19.404 2°45.583 -999 123 0.1 103720 79
2006-01-23 08:29:56 51°19.412 2°45.556 -999 141 0.1 103720 79
2006-01-23 08:30:01 51°19.419 2°45.529 -999 155 0.1 103720 79
2006-01-23 08:30:05 51°19.425 2°45.508 -999 156 0.1 103720 79
2006-01-23 08:30:11 51°19.434 2°45.475 -999 159 0.1 103720 79
2006-01-23 08:30:17 51°19.441 2°45.442 -999 160 0.1 103750 79
2006-01-23 08:30:21 51°19.447 2°45.42 -999 160 0.1 103750 79
2006-01-23 08:30:25 51°19.452 2°45.398 -999 160 0.1 103720 79
2006-01-23 08:30:32 51°19.462 2°45.36 -999 159 0.1 103720 79
2006-01-23 08:30:36 51°19.468 2°45.339 -999 153 0.1 103720 79
2006-01-23 08:30:41 51°19.475 2°45.312 -999 153 0.1 103720 79
2006-01-23 08:30:45 51°19.48 2°45.29 -999 145 0.1 103720 79
2006-01-23 08:30:52 51°19.49 2°45.252 -999 134 0.1 103720 79
2006-01-23 08:30:56 51°19.496 2°45.231 -999 113 0.1 103760 79
2006-01-23 08:31:01 51°19.504 2°45.204 -999 100 0.1 103760 79
2006-01-23 08:31:05 51°19.509 2°45.182 -999 100 0.1 103720 79
2006-01-23 08:31:12 51°19.52 2°45.144 -999 108 0.1 103720 79
2006-01-23 08:31:16 51°19.526 2°45.122 -999 102 0.1 103720 79
2006-01-23 08:31:21 51°19.533 2°45.095 -999 97 0.1 103720 79
2006-01-23 08:31:25 51°19.539 2°45.073 -999 102 0.1 103720 79
2006-01-23 08:31:31 51°19.548 2°45.041 -999 109 0.1 103720 79
2006-01-23 08:31:36 51°19.556 2°45.014 -999 119 0.1 103760 79
2006-01-23 08:31:41 51°19.564 2°44.987 -999 108 0.1 103760 79
2006-01-23 08:31:45 51°19.57 2°44.966 -999 109 0.1 103760 79
2006-01-23 08:31:51 51°19.579 2°44.934 -999 108 0.1 103760 79
2006-01-23 08:31:56 51°19.587 2°44.907 -999 102 0.1 103750 79
2006-01-23 08:32:01 51°19.594 2°44.88 -999 112 0.1 103750 79
2006-01-23 08:32:05 51°19.6 2°44.858 -999 115 0.1 103760 79
2006-01-23 08:32:11 51°19.608 2°44.826 -999 124 0.1 103760 79
2006-01-23 08:32:16 51°19.616 2°44.799 -999 135 0.1 103750 79
2006-01-23 08:32:21 51°19.623 2°44.772 -999 141 0.1 103750 79
2006-01-23 08:32:25 51°19.629 2°44.75 -999 141 0.2 103760 79
2006-01-23 08:32:31 51°19.637 2°44.718 -999 140 0.2 103760 79
2006-01-23 08:32:36 51°19.644 2°44.691 -999 136 0.2 103760 79
2006-01-23 08:32:41 51°19.651 2°44.664 -999 120 0.2 103760 79
2006-01-23 08:32:45 51°19.657 2°44.643 -999 116 0.2 103760 79
2006-01-23 08:32:52 51°19.667 2°44.604 -999 99 0.2 103760 79
2006-01-23 08:32:56 51°19.673 2°44.583 -999 38 0.2 103760 79
2006-01-23 08:33:01 51°19.68 2°44.556 -999 34 0.2 103760 79
2006-01-23 08:33:05 51°19.686 2°44.534 -999 35 0.2 103770 79
2006-01-23 08:33:12 51°19.696 2°44.496 -999 34 0.2 103770 79
2006-01-23 08:33:16 51°19.702 2°44.474 -999 34 0.2 103760 79
2006-01-23 08:33:21 51°19.709 2°44.447 -999 34 0.2 103760 79